This is the latest recevied weather packets stored in our database for station/object CE3MXM-12. If no packets are shown the sender has not sent any weather packets the latest 10 day(s).
| Time | Temp. | Humidity | Pressure | Rain* | Wind** | Luminosity | Snow |
|---|---|---|---|---|---|---|---|
| 1777409357 | 17.78° C | 65% | 1017.4 hPa | - | - | - | - |
| 1777409056 | 17.78° C | 66% | 1017.4 hPa | - | - | - | - |
| 1777408756 | 17.78° C | 66% | 1017.3 hPa | - | - | - | - |
| 1777408455 | 17.78° C | 66% | 1017.3 hPa | - | - | - | - |
| 1777408155 | 17.78° C | 65% | 1017.1 hPa | - | - | - | - |
| 1777407855 | 17.78° C | 65% | 1017.4 hPa | - | - | - | - |
| 1777407555 | 18.33° C | 64% | 1017.3 hPa | - | - | - | - |
| 1777407256 | 18.89° C | 62% | 1017.2 hPa | - | - | - | - |
| 1777406958 | 18.89° C | 62% | 1017.3 hPa | - | - | - | - |
| 1777406656 | 19.44° C | 61% | 1017 hPa | - | - | - | - |
| 1777406360 | 19.44° C | 61% | 1017 hPa | - | - | - | - |
| 1777406056 | 19.44° C | 61% | 1017 hPa | - | - | - | - |
| 1777405755 | 19.44° C | 60% | 1016.8 hPa | - | - | - | - |
| 1777405455 | 19.44° C | 60% | 1016.6 hPa | - | - | - | - |
| 1777405155 | 19.44° C | 59% | 1016.6 hPa | - | - | - | - |
| 1777404858 | 19.44° C | 60% | 1016.7 hPa | - | - | - | - |
| 1777404554 | 19.44° C | 60% | 1016.8 hPa | - | - | - | - |
| 1777404254 | 19.44° C | 62% | 1016.6 hPa | - | - | - | - |
| 1777403954 | 19.44° C | 61% | 1016.8 hPa | - | - | - | - |
| 1777403656 | 19.44° C | 60% | 1016.9 hPa | - | - | - | - |
| 1777403354 | 19.44° C | 60% | 1017 hPa | - | - | - | - |
| 1777403056 | 19.44° C | 59% | 1016.9 hPa | - | - | - | - |
| 1777402753 | 20.56° C | 57% | 1017.1 hPa | - | - | - | - |
| 1777402454 | 20° C | 59% | 1017.2 hPa | - | - | - | - |
| 1777402153 | 20° C | 59% | 1017.2 hPa | - | - | - | - |
* Rain since midnight (hover to see other rain measurements)
** Current wind speed in m/s (hover to see current wind gust speed)